Location: Unspecified
(0.0000°N, 0.0000°E)
Time: 12:21:37
(UTC+00:00)

Vanguard 2 Rocket - Visible Passes

Search period start: 05 March 2024 00:00
Search period end: 15 March 2024 00:00
Orbit: 555 x 3309 km, 32.9° (Epoch: 04 March)

Date Brightness Start Highest point End Pass type
(mag) Time Alt. Az. Time Alt. Az. Time Alt. Az.
05 Mar 9.6 20:01:54 10° WNW 20:19:48 72° SW 20:35:04 22° SE visible
05 Mar 10.3 22:22:47 10° W 22:39:33 32° SSW 22:40:46 32° SSW visible
06 Mar10.801:11:44SSE01:11:44SSE00:46:28WSWvisible
06 Mar 8.9 05:33:17 10° SSW 05:38:08 20° SSE 05:41:45 10° ESE visible
06 Mar 9.5 18:58:50 10° NW 19:15:04 89° NE 19:35:42 10° SE visible
06 Mar 10.1 21:16:40 10° W 21:34:26 43° SSW 21:43:24 30° SSE visible
06 Mar 10.8 23:43:52 10° WSW 23:49:05 15° SW 23:49:05 15° SW visible
07 Mar 9.5 04:31:01 10° SSW 04:35:31 15° SSE 04:39:02 10° SE visible
07 Mar 9.5 17:56:35 10° NW 18:10:44 70° NE 18:30:54 10° ESE visible
07 Mar 9.9 20:12:02 10° WNW 20:29:21 56° SW 20:45:55 17° SE visible
07 Mar 10.5 22:35:03 10° WSW 22:50:01 25° SSW 22:51:35 25° SSW visible
08 Mar10.801:21:36SSE01:21:36SSE00:57:16SWvisible
08 Mar 9.9 03:28:06 10° SSW 03:32:19 13° S 03:35:47 10° SE visible
08 Mar 8.1 05:41:43 10° SW 05:48:24 37° SSE 05:52:47 10° E visible
08 Mar 9.7 19:08:34 10° WNW 19:24:29 72° SW 19:44:56 10° SE visible
08 Mar 10.4 21:28:03 10° W 21:44:33 33° SSW 21:53:56 24° SSE visible
08 Mar 11.0 23:57:15 10° SW 23:59:36 12° SW 23:59:36 12° SW visible
09 Mar 10.2 02:29:34 12° S 02:29:34 12° S 02:32:17 10° SSE visible
09 Mar 8.9 04:38:55 10° SSW 04:46:04 25° SSE 04:50:51 10° ESE visible
09 Mar 9.5 18:06:01 10° NW 18:20:02 89° NE 18:40:30 10° SE visible
09 Mar 10.2 20:22:42 10° W 20:39:13 43° SSW 20:56:07 13° SSE visible
09 Mar 10.7 22:47:58 10° WSW 23:01:02 20° SSW 23:01:46 20° SSW visible
10 Mar 9.5 03:37:39 14° SSW 03:43:09 20° SSE 03:48:25 10° ESE visible
10 Mar 9.9 19:18:43 10° WNW 19:34:08 56° SSW 19:53:56 10° SE visible
10 Mar 10.6 21:40:08 10° WSW 21:55:10 26° SSW 22:03:46 20° S visible
11 Mar 9.9 02:40:07 17° SSE 02:40:07 17° SSE 02:45:25 10° SE visible
11 Mar 8.1 04:47:29 10° SW 04:56:20 44° SSE 05:01:38 10° E visible
11 Mar 9.6 18:15:46 10° WNW 18:29:30 72° SW 18:49:42 10° SE visible
11 Mar 10.5 20:34:00 10° W 20:49:29 34° SSW 21:05:37 12° SSE visible
11 Mar 10.8 23:01:00 10° SW 23:11:14 17° SSW 23:11:14 17° SSW visible
12 Mar 9.0 03:48:21 21° SSW 03:53:42 32° SSE 03:59:47 10° E visible
12 Mar 10.2 19:29:22 10° W 19:44:08 43° SSW 20:02:48 10° SE visible
12 Mar 10.7 21:52:48 10° WSW 22:06:19 21° SSW 22:12:54 18° S visible
13 Mar 9.6 02:50:54 25° SSE 02:50:54 25° SSE 02:57:22 10° ESE visible
13 Mar 7.4 04:56:35 10° SW 05:06:17 76° SE 05:11:46 10° ENE visible
13 Mar 9.9 18:25:56 10° WNW 18:39:16 55° SSW 18:58:38 10° SE visible
13 Mar 10.7 20:45:57 10° WSW 21:00:14 26° SSW 21:14:27 12° SSE visible
13 Mar 10.8 23:13:18 10° SW 23:20:03 16° SSW 23:20:03 16° SSW visible
14 Mar 10.3 01:53:25 12° SE 01:53:25 12° SE 01:54:16 10° ESE visible
14 Mar 8.3 03:59:06 30° SSW 04:03:57 50° SSE 04:10:24 10° ENE visible
14 Mar 10.5 19:40:36 10° W 19:54:32 33° SSW 20:11:39 10° SSE visible
14 Mar 10.7 22:05:34 10° SW 22:17:54 19° S 22:21:29 18° S visible
